Flag for Sweden Weather past 2 weeks in Malmö, Sweden

Now
75 °F

Sunny.


Feels Like: 78 °F
Forecast: 62 / 79 °F
Wind: 13 mph from Northeast

Location: Malmo / Sturup

Current Time: Jul 23, 2014 at 10:58:50 AM

Latest Report: Jul 23, 2014 at 10:20 AM


Visibility: 10 mi

Pressure: 30.24 "Hg

Humidity: 47%

Dew point: 54 °F

Location of MalmöLocation

Historic Weather in Malmö — Graph

°F

Malmö temperature yesterday

Maximum temperature yesterday: 81 °F (at 12:50 PM)
Minimum temperature yesterday: 57 °F (at 4:20 AM)
Average temperature yesterday: 71 °F

Past Weeks' High & Low Weather Summary

 TemperatureHumidityPressure
High81 °F (Jul 10, 2:50 PM)100% (Jul 12, 10:50 PM)30.24 "Hg (Jul 12, 10:50 PM)
Low50 °F (Jul 17, 2:20 AM)37% (Jul 22, 3:20 PM)29.62 "Hg (Jul 13, 10:20 AM)
Average66 °F73%29.98 "Hg
* Reported Jul 8 7:20 AM — Jul 23 7:50 AM, Malmö, Weather by CustomWeather, © 2014

Note: Actual official high and low records may vary slightly from our data, if they occured in-between our weather recording intervals... More about our weather records

Advertising

Malmö weather history for previous 24 hours

 ConditionsComfort  
Time TempWeatherWind HumidityBarometerVisibility
7:50 AM
Jul 23
66 °FSunny.9 mph68%30.24 "Hg10 mi
7:20 AM64 °FSunny.9 mph73%30.24 "Hg10 mi
6:50 AM63 °FSunny.8 mph77%30.24 "Hg10 mi
6:20 AM61 °FSunny.7 mph83%30.24 "Hg10 mi
5:50 AM57 °FClear.7 mph88%30.24 "Hg10 mi
5:20 AM57 °FClear.7 mph94%30.24 "Hg10 mi
4:50 AM57 °FClear.6 mph94%30.24 "Hg10 mi
4:20 AM61 °FClear.7 mph83%30.24 "Hg10 mi
3:50 AM61 °FClear.8 mph83%30.24 "Hg10 mi
3:20 AM63 °FClear.5 mph83%30.24 "Hg10 mi
2:50 AM61 °FClear.5 mph83%30.24 "Hg10 mi
2:20 AM61 °FClear.3 mph83%30.24 "Hg10 mi
1:50 AM61 °FClear.3 mph83%30.24 "Hg10 mi
6:50 PM
Jul 22
77 °FPassing clouds.12 mph47%30.18 "HgN/A
6:20 PM77 °FSunny.14 mph47%30.18 "Hg10 mi
5:50 PM79 °FSunny.14 mph42%30.18 "Hg10 mi
5:20 PM79 °FPassing clouds.13 mph39%30.18 "HgN/A
4:50 PM81 °FSunny.15 mph39%30.18 "Hg10 mi
4:20 PM81 °FSunny.14 mph39%30.18 "Hg10 mi
3:50 PM81 °FSunny.13 mph39%30.18 "Hg10 mi
3:20 PM81 °FPassing clouds.14 mph37%30.18 "HgN/A
2:50 PM81 °FPassing clouds.10 mph39%30.18 "HgN/A
2:20 PM79 °FPassing clouds.12 mph42%30.18 "HgN/A
1:50 PM81 °FSunny.13 mph45%30.18 "Hg10 mi
1:20 PM81 °FPassing clouds.14 mph42%30.18 "HgN/A
12:50 PM81 °FSunny.15 mph48%30.18 "Hg10 mi
12:20 PM79 °FPassing clouds.13 mph51%30.15 "HgN/A
11:50 AM79 °FSunny.14 mph51%30.15 "Hg10 mi
11:20 AM77 °FPassing clouds.10 mph57%30.15 "HgN/A
10:50 AM75 °FSunny.12 mph57%30.15 "Hg10 mi
10:20 AM73 °FSunny.12 mph61%30.15 "Hg10 mi
Weather by CustomWeather, © 2014

See weather overviewHow to use our weather pages